Flag for Australia Weather past 2 weeks in Hobart, Tasmania, Australia

Now
55 °F

Passing clouds.


Feels Like: 51 °F
Forecast: 45 / 60 °F
Wind: 17 mph from Northwest

Location: Hobart Airport

Current Time: Mar 5, 2015 at 10:24:23 PM

Latest Report: Mar 5, 2015 at 9:30 PM


Visibility: N/A

Pressure: 29.45 "Hg

Humidity: 51%

Dew point: 37 °F

Location of HobartLocation

Historic Weather in Hobart — Graph

°F

Hobart temperature yesterday

Maximum temperature yesterday: 72 °F (at 1:00 PM)
Minimum temperature yesterday: 57 °F (at 12:00 AM)
Average temperature yesterday: 64 °F

Past Weeks' High & Low Weather Summary

 TemperatureHumidityPressure
High97 °F (Feb 22, 3:00 PM)94% (Feb 20, 3:00 AM)30.27 "Hg (Feb 20, 3:00 AM)
Low43 °F (Mar 2, 3:30 AM)19% (Feb 22, 3:00 PM)29.39 "Hg (Feb 28, 7:30 PM)
Average63 °F60%29.87 "Hg
* Reported Feb 18 9:00 PM — Mar 5 9:00 PM, Hobart, Weather by CustomWeather, © 2015

Note: Actual official high and low records may vary slightly from our data, if they occured in-between our weather recording intervals... More about our weather records

Advertising

Hobart weather history for previous 24 hours

 ConditionsComfort  
Time TempWeatherWind HumidityBarometerVisibility
9:00 PM
Thu, Mar 5
55 °FPartly cloudy.17 mph51%29.47 "HgN/A
8:30 PM55 °FPassing clouds.20 mph47%29.50 "HgN/A
8:00 PM55 °FPartly cloudy.18 mph47%29.50 "HgN/A
7:30 PM55 °FBroken clouds.22 mph47%29.53 "HgN/A
7:00 PM55 °FBroken clouds.24 mph44%29.53 "HgN/A
6:30 PM55 °FPartly sunny.21 mph41%29.56 "HgN/A
6:00 PM55 °FBroken clouds.20 mph38%29.56 "HgN/A
5:30 PM57 °FBroken clouds.23 mph36%29.59 "HgN/A
5:01 PM57 °FBroken clouds.22 mph33%29.59 "HgN/A
5:00 PM57 °FBroken clouds.23 mph33%29.59 "HgN/A
4:00 PM59 °FPassing clouds.22 mph39%29.62 "HgN/A
3:00 PM61 °FScattered showers. Scattered clouds.25 mph31%29.65 "HgN/A
2:00 PM63 °FPassing clouds.23 mph30%29.68 "HgN/A
1:00 PM59 °FScattered clouds.21 mph36%29.71 "HgN/A
12:30 PM59 °FPassing clouds.21 mph34%29.71 "HgN/A
12:00 PM57 °FPassing clouds.20 mph36%29.71 "HgN/A
11:30 AM57 °FPassing clouds.23 mph33%29.71 "HgN/A
11:00 AM55 °FPassing clouds.20 mph33%29.71 "HgN/A
10:30 AM52 °FScattered showers. Passing clouds.22 mph47%29.71 "HgN/A
10:00 AM54 °FPassing clouds.22 mph41%29.68 "HgN/A
9:30 AM52 °FPassing clouds.18 mph50%29.68 "HgN/A
9:02 AM50 °FSprinkles. Scattered clouds.22 mph50%29.68 "HgN/A
8:00 AM50 °FScattered showers. Scattered clouds.20 mph54%29.62 "HgN/A
7:30 AM48 °FScattered clouds.12 mph62%29.62 "HgN/A
7:00 AM48 °FScattered clouds.17 mph62%29.59 "HgN/A
6:30 AM48 °FPassing clouds.18 mph66%29.56 "HgN/A
6:00 AM48 °FPassing clouds.17 mph62%29.53 "HgN/A
5:30 AM48 °FPassing clouds.20 mph66%29.50 "HgN/A
5:00 AM48 °FPassing clouds.12 mph66%29.50 "HgN/A
4:00 AM50 °FSprinkles. Partly cloudy.18 mph71%29.47 "HgN/A
3:00 AM54 °FPassing clouds.16 mph51%29.42 "HgN/A
2:30 AM54 °FPassing clouds.14 mph51%29.42 "HgN/A
2:00 AM55 °FPassing clouds.14 mph47%29.45 "HgN/A
1:30 AM55 °FPassing clouds.12 mph55%29.45 "HgN/A
1:00 AM55 °FPassing clouds.22 mph55%29.42 "HgN/A
12:30 AM57 °FPassing clouds.17 mph59%29.42 "HgN/A
12:00 AM57 °FSprinkles. Passing clouds.13 mph59%29.42 "HgN/A
11:00 PM
Wed, Mar 4
59 °FPassing clouds.20 mph55%29.42 "HgN/A
10:00 PM61 °FPassing clouds.14 mph48%29.45 "HgN/A
Weather by CustomWeather, © 2015

See weather overviewHow to use our weather pages